Theta_e
340 340 340 340 340 340 340 340 340 340 339 338 336 335 335 334 333 334 334 333 333 334 334 334 336 338 339 339 338 337 335 336 337 337 335 335 335 334 334 333 332 332 333 333 333 333 333 332 330 328 327 328 326 325 324 324 325 325 326 327 326 326 329 330 330 328 326 326 327 328 328 328 327 327 327 326 325 325 326 326 324 324 325 326 325
340 340 340 340 340 340 340 340 340 339 339 338 337 335 334 332 333 335 334 333 334 333 333 333 333 335 337 338 337 336 336 336 337 335 334 334 334 335 334 333 332 332 332 332 332 332 331 330 329 327 327 327 325 323 323 323 324 324 325 326 326 325 327 330 330 327 325 323 323 325 327 327 326 326 327 327 325 324 325 326 325 324 325 325 324
340 341 340 340 339 340 340 340 339 339 338 337 335 333 332 332 334 334 332 333 334 333 333 333 333 333 334 336 336 336 336 335 334 334 334 334 334 335 334 332 331 331 332 332 331 330 330 329 327 326 326 325 322 320 320 321 321 323 324 325 325 325 326 328 328 326 324 324 321 323 326 326 326 325 326 326 326 325 324 325 325 325 324 324 324
341 340 339 339 339 340 340 339 339 338 337 335 334 332 333 334 334 333 332 333 333 333 333 333 333 333 333 335 334 334 334 333 332 333 333 334 335 335 334 332 330 330 330 330 330 329 330 329 326 325 325 324 322 319 318 319 322 323 324 325 325 325 326 326 325 325 324 324 322 322 324 325 325 325 325 325 325 325 324 324 324 324 324 324 325
340 339 339 339 338 339 338 339 338 338 336 335 333 332 333 335 334 332 332 333 332 332 333 333 333 333 333 334 334 333 333 333 334 333 331 332 332 332 333 331 330 330 329 329 329 329 330 328 327 326 324 323 321 320 321 322 324 324 324 324 324 324 325 326 325 325 325 324 324 323 323 324 325 325 325 325 324 324 324 325 324 323 323 323 324
340 339 338 338 338 338 338 338 337 337 336 335 333 332 332 333 333 334 333 333 333 332 333 333 333 333 333 334 333 333 333 334 334 332 331 331 330 331 332 333 333 332 329 328 328 329 329 328 327 326 323 321 321 322 323 323 324 324 324 324 324 324 324 325 325 325 325 324 324 323 322 323 324 325 326 326 325 324 324 325 325 324 323 322 323
339 338 338 338 337 337 338 337 337 337 336 335 333 332 333 333 334 334 333 333 333 333 333 334 333 333 333 333 333 333 333 333 333 332 331 332 332 332 333 333 334 333 332 329 328 328 328 327 327 326 323 321 321 323 323 323 323 324 324 324 324 325 324 323 324 324 325 325 324 324 323 323 325 325 326 327 325 324 325 325 325 324 323 323 321
338 338 338 337 337 337 338 337 337 336 335 335 333 334 335 335 334 333 333 333 332 332 332 333 333 332 332 332 332 333 332 332 332 332 331 331 331 332 332 333 334 334 333 329 326 326 325 325 326 325 323 321 321 323 323 323 323 324 323 324 324 324 324 324 325 324 325 325 325 324 324 325 327 328 327 327 326 325 325 324 325 324 323 323 322
338 339 337 337 336 335 336 337 337 336 336 336 333 332 333 334 334 332 333 332 331 331 331 331 331 331 331 331 331 332 332 331 330 331 331 331 331 332 333 333 334 334 333 329 326 325 323 323 324 324 323 320 320 322 323 323 323 323 323 323 323 323 323 324 325 325 325 324 324 324 325 327 329 329 328 327 326 325 325 324 324 325 324 323 323
339 338 337 336 335 333 335 337 336 336 337 336 333 331 331 333 333 332 332 332 331 329 329 330 330 331 331 331 331 331 331 331 330 331 331 331 331 331 332 332 332 332 331 329 327 327 325 324 324 324 322 319 320 322 323 323 323 323 323 323 323 323 323 323 323 324 324 323 323 323 325 327 329 330 329 329 327 326 326 326 325 325 325 324 324
339 338 336 336 334 332 335 336 336 337 336 335 335 331 330 332 332 332 332 331 330 329 330 330 331 331 331 331 331 330 331 331 330 331 331 331 331 329 330 330 329 329 328 327 327 327 326 325 324 324 322 319 319 321 322 323 323 323 323 323 323 323 322 322 322 323 324 323 322 322 323 325 328 330 330 330 328 327 327 327 327 326 326 326 325
337 336 334 333 332 333 336 336 336 335 335 335 335 331 329 331 332 331 331 331 330 331 331 331 331 332 330 329 330 329 329 329 330 331 331 332 332 330 330 330 329 326 326 327 327 326 326 325 324 324 322 319 319 320 321 323 323 323 324 324 324 323 323 323 322 322 324 323 322 321 321 323 326 329 330 330 329 328 328 328 329 328 327 327 327
335 335 333 329 331 336 336 336 336 334 334 334 333 330 330 331 331 331 332 332 331 331 332 332 332 332 330 328 329 329 328 328 329 330 330 331 331 331 331 331 330 327 326 326 326 326 325 324 324 323 321 319 319 319 320 322 324 324 324 324 325 324 323 323 322 323 324 323 322 321 320 320 323 328 329 330 329 329 329 329 329 329 327 327 327
334 335 331 328 333 337 336 336 336 335 333 333 331 330 331 331 331 330 331 332 331 331 332 332 332 331 329 329 329 328 328 328 328 329 330 330 330 330 331 331 330 329 327 325 325 325 324 324 324 322 320 319 319 319 319 321 323 324 324 324 324 324 324 322 322 323 324 323 322 321 320 320 321 325 328 329 329 328 329 329 328 328 327 326 327
334 334 329 329 335 336 336 337 336 335 333 331 330 330 331 331 331 329 330 332 331 330 330 331 330 328 327 327 328 328 328 327 328 328 329 329 329 329 330 330 329 329 327 326 325 324 323 323 322 319 319 319 319 319 319 319 321 322 324 325 324 324 324 323 323 323 323 323 323 321 320 321 320 322 327 329 328 328 329 328 328 327 326 325 326
333 331 328 332 336 336 337 336 336 335 332 330 329 329 329 330 330 328 329 331 330 328 328 329 329 327 326 326 325 327 327 327 327 327 327 328 329 329 329 329 328 328 327 326 325 321 320 319 318 318 318 318 319 319 319 319 319 321 322 323 323 323 323 323 323 322 322 323 322 322 321 322 322 322 325 328 328 328 328 328 327 327 326 325 325
332 330 329 333 335 335 337 336 336 334 330 329 329 328 328 329 329 329 329 330 329 328 327 327 328 327 325 325 323 325 326 326 327 327 327 327 327 328 328 328 328 326 325 324 320 317 316 317 317 318 318 318 318 319 319 319 320 321 321 322 322 323 323 322 322 321 321 322 321 321 321 322 322 323 325 326 327 328 327 327 327 326 327 326 325
333 331 330 332 334 335 336 336 335 332 329 329 329 329 328 329 329 328 328 328 329 329 329 327 327 325 322 321 321 323 326 326 327 328 327 326 325 326 327 327 326 323 321 319 316 316 317 317 318 318 318 318 318 319 320 321 321 322 322 323 323 322 323 322 322 322 322 322 321 321 321 322 321 324 326 327 327 327 327 326 326 326 326 326 326
334 332 332 332 333 334 335 336 335 332 330 330 330 329 329 329 329 328 326 326 328 329 330 328 326 325 321 320 318 322 326 326 326 326 325 325 324 325 325 324 323 319 317 317 317 317 318 318 318 318 317 317 318 321 322 322 322 323 323 323 322 322 322 322 322 322 322 322 322 322 322 321 320 323 326 327 328 327 325 324 325 326 326 326 326
334 333 333 333 333 333 335 336 334 332 331 331 330 328 329 329 329 328 325 325 327 328 329 329 327 325 323 319 317 321 325 325 325 324 324 324 322 323 322 320 318 316 316 317 318 318 318 318 317 317 318 319 321 322 323 323 323 323 323 323 322 322 322 321 322 322 323 322 322 323 323 321 321 323 326 327 328 326 323 324 325 326 326 325 325
334 334 334 334 333 333 334 335 334 332 331 332 329 328 328 328 328 328 327 326 326 327 329 328 327 325 323 320 316 318 321 321 321 321 321 321 320 320 318 317 317 317 318 318 318 317 317 317 316 318 320 321 322 323 323 324 323 324 323 322 321 322 322 321 321 322 322 322 322 324 323 320 321 324 326 326 326 323 322 324 326 325 325 325 324
333 335 335 334 334 334 334 334 333 332 332 331 330 328 328 327 327 327 327 327 326 327 328 328 327 326 324 321 317 316 317 317 316 316 317 317 318 318 318 317 318 318 317 317 317 316 316 315 316 319 321 322 322 323 324 324 323 323 323 323 322 321 322 321 321 321 322 323 323 324 322 319 322 325 325 326 324 321 323 325 325 324 325 325 323
331 333 334 334 332 332 334 333 333 333 332 331 330 329 328 327 326 327 326 326 326 326 327 327 327 325 324 323 322 321 320 317 315 315 315 316 317 317 318 318 317 317 316 316 316 315 315 316 319 321 322 322 322 324 325 324 323 323 323 322 322 322 322 321 322 322 323 324 324 323 321 319 322 325 325 325 322 321 323 324 323 323 323 323 322
331 330 332 334 331 331 333 333 334 334 333 331 330 329 329 328 327 327 325 324 325 325 326 326 326 325 324 326 326 325 324 321 317 315 316 316 317 317 317 317 316 316 316 315 315 315 316 319 322 323 324 324 323 324 324 323 323 323 323 322 322 322 322 322 323 323 323 324 323 322 320 318 322 324 324 324 321 320 321 322 322 322 322 321 321
330 330 330 331 331 331 331 333 334 334 333 332 331 330 329 328 327 326 324 323 324 324 324 325 324 323 324 326 327 326 326 324 320 316 316 316 316 317 317 317 316 316 316 315 316 317 319 322 324 324 324 325 324 324 324 323 323 323 323 322 321 321 322 323 323 322 323 323 323 322 319 317 319 322 323 322 320 319 319 321 322 321 321 320 320
329 330 329 329 330 330 330 333 335 335 334 333 331 329 328 327 326 326 323 321 322 323 322 324 323 320 324 326 326 326 326 325 322 317 317 316 316 317 316 317 316 316 316 316 315 318 322 324 324 325 325 325 325 325 324 324 324 324 324 322 319 320 322 323 323 323 323 323 323 321 319 316 315 317 321 321 319 318 319 320 321 319 320 319 319
329 329 329 329 330 330 330 332 333 334 334 333 330 327 326 327 327 327 324 318 319 323 324 324 324 321 323 326 325 325 325 325 322 318 319 319 318 319 318 317 317 316 317 317 316 320 324 325 325 325 325 325 325 325 325 324 323 323 323 322 320 321 323 323 322 323 323 323 322 321 319 312 305 307 314 317 318 318 319 319 320 319 319 319 319
330 329 329 329 329 329 329 330 331 331 333 331 329 327 327 328 327 327 325 319 319 323 326 325 325 324 322 324 326 325 325 324 321 318 320 321 320 322 321 318 318 318 319 319 320 323 325 325 325 325 325 325 325 325 325 324 323 323 323 321 320 322 323 323 323 323 322 323 322 320 319 308 298 298 302 307 312 316 319 320 320 319 320 319 319
330 329 329 329 328 329 329 329 329 329 330 330 328 327 327 328 327 327 325 324 322 322 325 325 324 325 322 323 325 325 325 322 320 318 320 322 322 323 323 319 319 321 319 320 322 324 326 325 326 325 324 325 325 325 325 324 323 323 323 321 321 322 323 323 322 322 322 322 321 320 319 309 297 295 296 297 302 312 319 320 320 319 319 319 317
330 330 330 329 328 329 329 328 329 329 329 329 328 326 326 327 327 327 326 326 325 323 324 325 324 324 320 322 325 323 321 321 322 320 318 322 323 324 324 321 321 322 320 322 325 324 325 325 325 325 325 324 324 324 324 323 323 323 322 321 321 323 323 323 322 323 322 321 320 319 319 312 301 295 296 296 299 311 319 319 319 319 318 317 315
331 330 330 330 329 329 329 329 329 328 328 329 327 325 326 327 326 327 326 325 327 324 323 323 324 324 320 320 324 322 320 322 324 321 317 320 324 323 324 323 322 323 323 325 326 324 325 325 325 325 325 323 322 323 323 322 323 322 321 321 321 323 323 322 322 321 320 320 320 319 317 312 304 298 296 295 297 307 315 318 318 318 318 316 314
330 331 330 330 330 329 329 329 329 329 328 328 326 325 326 327 326 327 326 324 326 325 322 323 324 324 321 318 321 323 322 323 323 321 320 321 322 320 321 323 322 323 325 325 325 325 325 325 325 325 324 323 322 323 322 322 322 322 321 322 322 323 323 323 322 320 319 320 318 317 315 309 305 301 295 295 295 299 308 315 317 317 316 315 313
330 331 330 330 330 330 329 329 329 329 328 328 326 326 327 327 326 327 326 323 325 324 323 325 324 323 320 316 320 324 323 324 324 323 323 322 320 318 320 323 324 325 326 325 325 325 324 324 324 325 324 323 323 323 322 321 322 322 323 323 323 323 323 323 321 319 319 319 318 316 312 307 306 303 295 295 295 295 302 309 312 314 314 313 311
331 331 330 330 330 330 329 329 329 328 328 328 327 326 327 327 326 326 325 321 321 323 324 326 323 322 322 318 319 323 324 325 325 324 323 324 322 321 323 325 326 326 326 325 325 324 324 324 324 324 324 323 323 323 321 322 322 322 323 323 323 323 323 322 319 319 319 318 315 311 307 305 305 303 296 294 295 294 297 301 302 304 306 307 306
332 331 331 331 330 330 330 329 329 328 328 327 327 326 327 328 327 326 323 318 315 319 324 325 322 322 325 322 319 322 325 326 327 325 324 325 325 325 326 326 326 325 326 325 324 324 324 324 325 325 324 323 323 322 322 323 322 322 322 323 323 322 322 321 318 319 318 316 310 302 302 303 303 302 297 294 294 294 294 294 294 295 296 297 297
333 332 332 332 331 331 330 330 329 328 328 327 326 326 327 328 327 326 323 316 312 314 319 321 322 324 326 325 321 320 324 326 327 326 325 325 326 326 326 326 326 326 326 325 324 325 325 324 324 325 323 322 323 323 323 323 322 322 322 323 322 321 321 319 317 318 316 312 306 300 298 299 300 299 297 295 294 294 294 294 294 294 294 293 293
334 333 333 332 332 331 331 330 329 328 328 327 326 325 326 327 327 327 324 318 314 313 313 316 322 326 327 326 323 319 319 324 327 326 326 325 325 327 326 325 326 326 325 324 324 325 324 324 324 324 323 322 323 323 323 323 323 322 322 322 322 321 321 319 317 316 312 308 305 301 297 296 297 297 296 296 295 294 294 294 294 294 294 293 293
335 334 334 333 332 332 331 330 330 329 328 328 328 326 325 326 327 327 325 322 318 316 314 314 319 325 326 325 324 321 316 320 326 327 327 325 325 327 326 326 326 326 326 324 325 324 323 323 324 324 323 323 323 323 323 323 323 321 321 322 322 321 320 318 317 311 306 304 303 300 296 296 296 295 295 296 295 294 294 294 294 294 294 293 293
335 334 334 334 333 332 331 331 330 330 329 328 328 327 326 327 327 327 327 324 322 320 317 315 316 321 324 323 322 322 317 317 323 327 327 326 326 327 326 327 326 326 326 325 324 324 324 323 324 324 324 324 324 324 323 321 321 321 321 322 321 321 318 318 317 308 303 302 298 298 297 295 295 294 295 295 294 294 293 293 293 293 293 293 293
335 334 335 334 334 333 332 332 331 330 329 328 328 327 327 328 327 327 327 325 323 321 319 317 316 317 320 321 321 322 321 320 321 324 327 327 326 327 326 326 326 326 326 325 325 324 324 324 324 324 324 325 324 324 323 320 321 322 321 321 321 321 318 317 315 307 304 301 295 296 296 295 295 294 294 294 293 293 293 293 293 293 293 292 292
334 334 334 334 334 333 332 332 331 331 330 329 328 327 327 328 327 327 326 325 323 322 321 319 317 317 318 321 322 322 323 323 322 322 324 326 326 327 327 327 327 327 326 326 325 324 324 324 324 324 324 325 325 324 323 320 320 321 321 321 321 320 317 317 314 309 304 299 295 295 295 296 297 295 294 293 293 293 293 293 292 292 292 292 292
334 334 334 334 334 333 333 333 331 331 331 330 329 327 327 327 327 327 326 325 323 322 321 319 318 318 320 323 323 324 324 325 325 324 323 324 325 326 327 327 327 327 327 327 325 324 324 323 324 325 325 325 325 324 322 320 320 321 319 319 319 319 318 316 314 312 306 297 294 295 294 296 298 297 295 293 293 293 293 293 292 292 292 292 291
333 333 334 333 333 333 333 333 332 332 331 331 330 328 327 327 327 327 326 325 324 322 320 319 319 320 324 325 325 324 324 325 327 326 325 324 325 326 326 326 327 327 327 327 326 325 325 324 325 325 325 325 324 324 323 321 320 320 318 319 319 318 318 315 311 312 308 297 294 295 294 296 297 298 296 293 293 293 292 292 292 292 292 292 291
332 332 333 333 333 333 333 333 333 332 332 331 330 330 329 327 327 327 326 326 325 323 322 322 321 323 327 327 326 326 325 326 327 327 326 326 326 326 326 326 327 327 327 327 326 326 326 325 326 326 325 325 323 323 323 322 321 319 318 318 316 316 319 316 310 310 306 296 294 295 294 295 295 297 296 294 293 292 292 292 292 292 292 292 291
332 332 332 332 332 332 333 333 333 333 332 332 331 330 330 329 328 327 327 327 326 326 325 326 325 325 328 329 327 327 327 327 328 328 327 327 327 326 326 326 326 327 327 327 326 326 326 326 326 326 325 325 323 321 322 321 321 320 318 317 315 317 321 317 310 308 304 298 295 294 294 294 294 294 295 294 293 292 292 291 291 292 292 293 291
331 332 331 332 332 332 332 332 333 333 332 332 332 331 331 330 329 328 328 328 328 328 328 328 328 327 329 329 329 329 328 328 328 328 328 328 327 327 327 326 326 326 327 326 326 326 325 326 326 326 325 325 322 321 321 322 321 321 319 318 317 318 319 314 310 308 306 302 297 293 294 294 294 293 294 295 294 292 292 291 291 291 292 293 291
331 331 331 331 331 331 331 331 332 332 333 332 332 332 331 331 330 330 329 329 328 329 329 329 329 329 329 330 330 330 329 329 329 329 329 328 328 328 327 327 327 326 326 326 326 326 326 326 326 326 326 325 322 321 322 322 321 320 319 318 317 317 315 311 310 309 307 306 301 296 294 293 293 293 293 295 295 293 291 291 291 291 292 293 291
331 331 331 331 331 331 331 331 331 332 332 333 332 332 331 331 331 330 330 330 330 330 330 330 330 330 330 330 330 330 330 330 330 330 329 329 329 328 328 328 327 327 326 326 326 326 326 326 326 326 326 325 322 321 322 322 321 320 319 317 317 316 314 310 309 308 308 308 304 301 298 294 293 293 292 293 294 293 292 291 291 291 292 293 292
330 330 331 330 330 330 331 331 331 331 332 332 332 332 331 330 330 331 331 331 331 331 331 331 330 331 331 331 331 330 330 330 330 330 330 330 329 329 328 328 328 327 327 327 326 327 327 327 327 326 326 326 323 322 322 322 322 321 319 317 316 315 312 309 308 306 306 307 306 303 300 297 296 296 295 293 292 292 292 292 292 292 292 292 292
330 330 330 331 331 330 330 330 330 331 331 331 332 332 332 331 330 330 330 331 331 331 331 331 331 331 331 331 331 330 331 330 330 330 330 330 330 330 329 328 328 328 327 327 327 327 327 327 327 326 326 325 323 323 323 323 321 320 319 317 315 312 307 303 303 304 304 304 305 303 300 299 298 297 297 295 293 293 293 293 293 293 292 292 293
330 330 330 329 330 330 330 330 330 330 330 330 331 331 331 331 330 330 330 330 331 331 331 331 331 331 331 331 331 331 331 331 331 330 330 330 330 330 330 329 328 328 328 328 328 328 327 327 327 326 326 325 323 323 324 323 321 320 319 317 314 311 305 300 300 303 302 301 303 302 299 299 298 297 298 296 295 295 293 293 294 294 293 292 293
Wind_Speed
15 15 15 13 13 13 13 13 12 13 14 14 13 13 13 13 16 18 17 16 16 16 15 15 14 14 16 16 15 16 17 17 17 17 19 18 18 18 19 20 20 19 20 20 19 19 19 18 16 16 17 18 18 18 18 19 19 20 21 22 23 23 19 19 20 20 21 20 20 20 19 18 20 20 21 21 21 21 20 19 20 21 20 19 18
17 16 16 14 13 13 12 12 12 13 14 13 13 13 13 14 17 16 15 16 16 16 15 15 15 14 15 16 16 17 16 17 16 16 17 16 16 18 19 20 20 20 19 19 19 18 18 18 17 17 18 18 18 18 18 18 19 20 21 21 22 21 19 17 16 18 20 20 19 20 20 20 20 20 20 21 21 21 21 19 19 20 20 19 18
19 18 16 15 14 13 12 12 12 13 14 13 13 13 13 15 16 14 14 15 15 16 16 16 16 15 15 15 17 17 16 16 16 17 17 17 18 19 20 21 21 20 19 19 19 18 18 18 18 18 19 18 18 18 19 19 20 21 21 21 20 20 20 19 17 17 20 20 20 22 22 20 20 20 20 20 20 21 21 20 19 19 18 18 18
19 19 17 16 14 13 12 12 13 13 14 13 13 13 14 15 13 14 15 14 14 15 16 16 16 16 16 16 16 17 17 16 17 18 18 17 18 19 20 20 20 20 19 19 19 19 19 18 18 19 19 19 20 20 21 22 22 22 21 20 20 19 19 20 19 18 19 21 21 22 22 22 21 20 20 21 20 20 20 19 19 19 17 16 17
20 19 18 17 15 13 12 12 12 13 13 13 13 14 15 15 13 14 14 13 14 15 15 16 16 16 17 16 17 17 18 17 17 18 18 17 17 17 18 18 18 18 19 19 19 19 19 18 18 19 19 20 21 22 23 24 23 22 21 19 18 18 18 18 18 17 17 19 20 20 20 21 21 20 20 20 19 20 20 19 19 19 17 16 17
20 18 17 16 15 13 13 12 12 12 13 13 14 15 15 15 15 13 12 14 15 15 15 16 16 16 16 17 17 17 18 17 17 18 18 17 16 17 16 17 17 17 18 19 18 18 18 18 18 18 19 20 21 23 24 23 23 22 21 20 18 17 17 16 17 18 17 18 19 19 18 19 19 18 18 19 19 20 20 19 19 19 18 16 16
18 17 15 14 14 13 13 12 12 12 13 13 14 15 14 14 15 14 13 14 15 16 15 16 16 16 16 17 17 17 18 17 17 17 17 17 17 16 15 16 16 17 19 19 18 17 17 17 17 18 18 20 21 22 23 22 22 21 21 20 19 18 19 17 17 17 16 17 18 19 19 18 18 16 15 16 18 19 19 18 19 19 19 16 16
16 16 14 13 13 13 13 13 13 13 13 13 14 15 14 13 13 13 13 14 15 15 15 15 15 15 16 16 16 16 16 17 17 17 16 16 17 15 15 15 16 17 17 17 17 16 17 17 17 18 18 19 21 21 21 21 21 20 19 19 19 19 19 18 16 15 14 15 17 17 17 16 17 16 13 14 16 17 16 17 17 18 19 17 17
15 13 12 13 12 12 13 13 14 14 13 13 14 15 15 14 12 12 12 14 14 14 14 14 15 15 15 15 15 15 16 16 16 16 14 14 15 15 15 15 15 16 15 16 16 16 15 16 16 17 17 19 20 20 20 20 20 19 19 18 17 17 16 16 15 15 14 15 15 14 14 14 16 15 13 13 14 15 15 16 16 16 17 16 17
15 13 12 10 10 11 13 14 15 15 14 13 14 14 15 14 12 12 12 13 14 14 14 14 15 15 15 15 14 15 15 15 15 15 13 13 14 14 14 14 14 14 14 15 15 15 14 15 15 16 16 18 19 19 19 19 19 19 18 17 16 15 14 14 15 15 14 14 14 12 11 12 16 14 12 11 12 14 13 15 14 14 15 15 15
15 13 10 8 10 11 14 15 16 16 14 14 13 13 14 14 13 12 12 13 14 14 15 15 15 15 14 14 14 14 14 14 15 15 13 13 13 13 14 13 13 12 13 13 13 13 13 13 14 14 16 17 18 17 17 17 18 17 17 16 15 15 14 13 13 15 13 13 13 12 10 10 14 14 12 11 10 12 11 12 12 12 13 12 13
16 12 9 9 12 13 15 16 16 16 15 14 12 12 14 15 14 13 13 13 15 15 15 15 15 15 13 13 13 13 13 13 14 14 13 13 13 13 14 13 12 11 11 12 12 12 12 12 12 13 14 16 17 16 15 16 16 16 15 14 13 14 15 13 12 13 12 12 13 13 12 9 11 14 13 12 9 9 9 9 11 12 11 11 11
16 11 8 10 14 14 16 17 16 15 15 14 12 13 15 15 14 13 14 14 15 15 15 15 14 14 13 13 12 13 13 12 13 13 12 12 12 12 13 13 13 12 12 12 11 11 11 10 11 12 13 14 16 16 15 14 14 14 13 14 14 14 14 14 13 12 12 11 12 14 13 10 10 12 13 13 11 10 10 11 12 11 11 11 11
16 11 9 13 15 15 17 17 15 14 14 13 12 13 15 14 14 13 13 14 14 14 15 15 14 13 13 13 12 13 12 12 12 12 12 11 11 11 12 12 12 12 11 11 10 10 10 10 10 12 13 14 15 15 15 14 13 12 13 13 14 15 14 14 13 11 10 10 12 14 14 12 10 11 13 13 13 13 13 13 13 12 13 14 12
15 12 13 16 16 16 17 16 14 14 14 13 13 14 15 15 13 12 11 13 14 14 13 13 13 11 10 11 13 12 11 11 11 11 12 11 10 11 11 11 11 10 10 10 9 9 9 10 11 12 13 14 14 14 14 14 13 12 11 12 12 13 13 13 11 9 9 8 12 14 14 14 12 10 12 13 13 14 15 14 14 14 15 15 14
13 13 16 18 15 16 17 16 14 13 14 13 12 13 15 14 13 11 11 12 13 12 12 12 12 11 10 10 12 12 11 11 10 10 10 10 10 10 10 10 10 9 9 9 9 9 10 11 11 12 13 14 14 14 14 14 13 13 11 11 11 12 12 12 10 8 9 8 10 13 14 14 12 11 12 13 13 14 14 13 14 13 13 14 14
13 14 17 17 15 16 16 15 14 13 13 13 11 12 14 13 12 11 10 11 11 11 11 12 12 11 10 10 10 11 11 11 11 11 11 10 10 10 10 9 9 8 9 9 9 10 11 12 12 13 13 13 13 13 14 14 14 14 13 13 13 12 11 11 10 9 10 10 10 12 14 15 12 11 11 12 12 12 12 12 12 13 12 12 13
13 13 16 17 16 15 15 15 13 13 13 12 10 10 11 11 11 11 10 10 10 10 11 11 11 9 9 9 10 10 10 11 11 10 11 11 10 10 9 9 8 9 10 11 11 12 12 12 12 13 13 13 13 14 15 15 14 14 14 14 13 12 12 10 8 9 10 12 13 12 15 15 12 11 11 11 11 10 11 12 12 12 12 12 13
13 12 15 17 16 16 16 14 14 14 13 12 10 10 10 10 11 9 9 10 10 10 10 10 10 9 8 8 9 9 9 9 8 8 9 10 10 10 9 9 8 9 11 11 11 12 12 12 12 11 12 12 13 14 15 15 14 13 12 12 12 10 11 11 8 9 10 11 13 13 15 15 11 10 10 11 10 10 11 11 11 11 12 12 12
14 13 15 16 15 15 16 15 14 14 13 12 10 10 9 10 10 9 8 8 9 9 10 11 11 9 8 8 9 9 8 8 8 7 8 8 8 9 9 9 10 11 12 12 11 11 11 10 10 10 10 11 12 12 13 12 12 12 11 11 12 10 9 10 9 9 10 11 12 12 15 15 11 9 9 10 10 10 11 10 11 11 11 11 11
16 16 15 15 14 14 16 16 15 14 14 12 12 12 10 10 10 9 9 8 8 9 11 12 10 8 8 8 8 9 8 8 8 8 8 7 8 8 10 11 12 12 12 11 10 10 9 9 9 9 9 9 10 11 11 11 10 9 9 10 11 10 9 8 8 9 9 10 11 12 15 15 11 9 9 10 10 10 10 10 11 12 12 11 12
17 19 17 16 15 14 16 16 16 15 14 13 13 13 12 11 10 10 10 10 9 10 12 12 10 8 7 8 8 7 7 7 8 8 8 9 9 10 11 12 12 12 11 10 9 8 8 8 8 8 8 8 8 8 10 11 10 8 8 9 10 9 8 8 8 7 8 9 10 13 14 13 12 10 9 10 10 10 10 11 11 12 11 13 16
17 21 20 17 15 14 15 15 15 16 15 14 14 14 13 11 11 11 10 11 11 11 12 12 11 9 8 9 8 7 6 6 8 8 9 10 11 11 11 12 11 10 9 8 7 7 7 8 8 8 8 8 7 7 8 9 9 8 7 7 7 7 7 8 7 6 8 8 10 13 13 12 12 10 10 10 10 10 10 11 11 10 11 13 16
19 20 20 18 16 15 14 14 16 18 17 14 14 14 13 11 11 12 11 12 12 12 12 12 11 10 10 11 8 7 5 5 7 9 9 10 10 10 10 10 9 8 7 6 6 6 7 7 8 7 7 6 6 6 7 8 8 8 7 7 5 6 7 6 5 7 8 8 10 12 12 11 11 10 10 9 9 9 9 11 11 10 11 13 15
20 19 20 20 17 16 15 15 18 19 17 15 13 13 14 12 11 12 12 13 14 13 12 11 11 11 13 12 8 8 8 6 7 9 9 9 9 9 9 9 8 7 6 5 5 6 7 7 7 6 5 4 5 5 7 7 8 7 6 7 6 5 7 5 4 6 7 8 10 11 11 10 10 9 9 9 8 9 10 11 11 12 13 12 14
21 21 21 21 19 17 17 18 20 20 18 16 13 12 14 14 12 11 12 13 15 14 12 11 11 14 15 11 9 12 12 9 8 9 9 9 9 8 8 8 7 6 5 4 5 5 7 7 6 5 3 3 4 4 6 6 7 5 3 6 6 5 5 4 4 6 6 8 9 11 11 10 9 8 9 8 8 9 11 11 11 13 14 14 15
24 23 22 21 20 18 18 19 20 20 19 16 12 11 13 14 13 12 11 12 15 15 13 12 11 14 16 12 10 14 15 12 11 11 11 10 9 8 8 7 7 6 5 4 5 5 6 6 4 3 2 2 3 3 5 5 6 3 2 4 5 5 4 2 4 5 6 8 8 10 11 10 10 8 9 9 10 11 12 13 13 14 15 16 16
26 25 24 22 21 19 19 20 20 19 18 16 14 13 13 15 15 13 12 12 15 16 14 14 13 13 16 15 13 14 15 14 13 13 12 11 10 8 7 7 7 6 5 4 5 6 5 3 2 2 0 0 2 3 3 4 5 2 2 5 5 5 3 2 4 4 5 6 7 9 10 10 11 10 10 11 11 13 13 14 15 15 16 17 17
27 27 26 24 23 22 21 22 21 20 19 18 17 16 16 16 16 15 13 13 15 16 15 15 16 16 17 17 15 15 16 15 14 13 14 12 10 8 7 7 7 6 5 5 5 5 3 1 4 3 4 3 1 2 2 2 3 1 3 5 5 4 3 2 4 3 3 5 6 7 9 10 11 12 12 11 12 14 15 15 15 16 16 17 17
28 27 28 26 25 24 24 24 23 22 22 21 19 19 19 18 18 17 16 15 15 15 15 15 17 17 18 19 16 14 15 15 12 12 14 13 12 11 10 9 8 6 6 6 5 4 1 1 4 4 5 5 5 4 2 2 1 2 4 5 4 4 3 1 3 3 2 4 5 6 7 8 10 13 12 12 13 15 15 16 16 16 16 17 17
29 27 28 26 25 26 25 25 24 23 24 23 20 19 20 21 20 18 19 18 15 15 16 15 16 16 17 20 17 13 13 13 11 11 13 14 14 14 13 10 9 7 6 6 5 5 5 3 2 3 4 2 2 2 1 1 1 2 3 2 3 3 3 1 1 2 3 3 4 4 5 6 8 12 12 12 14 15 16 17 16 16 16 16 17
31 29 28 27 26 27 25 26 25 24 24 24 22 20 19 20 20 19 19 20 17 15 15 15 16 16 15 18 18 14 13 12 11 11 12 14 14 14 13 11 10 8 7 7 6 7 7 6 4 3 3 1 3 2 1 1 1 1 1 0 1 3 4 2 1 3 4 3 3 3 3 5 7 10 12 12 13 15 17 17 17 17 16 16 16
32 30 28 28 26 26 26 26 26 24 24 24 24 22 19 19 21 20 19 20 20 17 16 16 17 15 13 16 18 17 15 14 13 12 12 13 12 12 13 10 8 9 10 9 7 7 7 7 6 4 3 1 1 1 1 3 3 1 0 1 2 5 5 2 2 5 4 3 3 1 2 3 5 8 11 11 12 14 16 17 17 17 16 16 16
30 31 29 28 27 26 26 27 27 26 26 25 25 24 21 20 22 22 20 21 22 20 18 17 17 15 13 14 17 19 17 15 14 13 12 12 10 11 12 9 7 9 11 9 7 5 4 5 6 5 4 3 3 3 3 3 4 3 1 1 3 6 5 2 4 6 5 4 2 1 2 4 5 7 10 11 12 14 15 16 16 16 15 15 15
28 31 31 29 29 28 27 28 28 28 27 27 26 27 25 22 22 22 20 20 22 22 20 18 17 16 15 14 16 20 19 16 15 14 14 13 11 11 12 11 10 10 10 9 7 6 6 6 6 6 6 4 3 5 4 3 5 5 3 3 4 6 5 4 6 7 6 4 3 4 5 5 4 5 8 11 13 14 14 14 14 13 13 14 14
28 30 31 30 30 30 29 29 29 29 28 28 27 28 27 24 23 22 21 21 22 24 23 21 19 18 18 17 17 20 21 18 16 16 15 16 15 14 14 13 13 13 12 10 8 8 8 8 8 8 8 6 5 6 6 5 6 6 5 4 4 6 6 4 7 8 6 5 4 5 6 5 4 4 7 10 12 12 12 11 11 11 11 12 13
32 30 31 32 32 31 31 30 30 30 29 28 28 28 28 26 25 23 22 22 22 24 24 22 21 21 20 20 18 19 22 20 18 17 16 17 18 16 15 15 15 14 12 11 10 8 9 9 9 9 8 8 7 6 6 6 6 6 5 4 4 5 6 5 6 7 7 6 5 5 5 5 5 5 6 8 10 10 10 9 8 9 9 10 12
36 32 31 32 33 32 32 31 30 30 30 30 29 28 27 27 26 25 23 23 23 23 23 24 23 23 22 21 19 18 21 22 20 18 17 18 19 18 16 15 15 15 13 12 11 10 11 11 10 9 9 9 9 9 8 7 8 7 5 5 6 6 7 7 6 7 8 7 5 4 5 5 5 6 6 8 9 9 8 7 7 8 8 9 11
37 36 33 31 32 32 32 31 31 31 31 30 29 28 26 26 26 25 24 24 25 23 23 24 25 25 24 23 20 19 21 23 23 21 20 19 19 19 18 17 15 16 15 14 13 13 13 14 12 11 11 10 10 10 8 6 8 9 6 7 7 7 8 8 7 8 7 6 5 5 6 5 6 7 8 9 9 9 8 8 7 7 8 9 10
37 38 36 33 32 32 32 33 33 32 32 31 30 29 28 27 27 27 26 27 27 26 25 25 26 26 26 24 23 21 21 23 24 24 24 23 22 20 19 18 16 16 17 16 16 16 16 16 15 13 12 12 11 10 7 6 9 8 6 9 9 8 9 8 8 9 7 5 5 6 6 6 7 8 9 10 10 9 8 8 7 7 8 9 11
36 37 38 37 35 34 34 35 35 34 34 34 33 33 33 31 31 31 31 30 30 29 27 27 27 27 26 25 25 24 23 24 25 26 27 26 24 23 21 21 20 19 18 18 18 19 18 17 16 14 14 13 13 12 9 8 9 6 7 11 10 10 10 9 9 10 8 6 6 7 7 7 8 9 10 10 9 8 7 7 7 7 8 10 11
36 38 39 38 36 35 36 37 36 36 35 35 35 36 36 36 35 35 34 33 33 32 31 30 29 28 27 27 27 27 27 26 25 26 27 27 26 25 25 24 23 22 21 20 20 20 19 19 18 15 14 14 15 13 10 9 8 7 10 10 8 9 10 10 11 10 8 6 7 7 7 9 9 9 10 9 8 7 6 6 6 7 8 9 11
36 36 37 37 37 36 38 39 38 38 37 36 36 36 37 36 34 33 34 33 33 33 33 32 31 30 29 29 29 30 29 28 27 26 27 28 27 26 27 26 25 24 23 22 22 22 20 20 20 18 16 15 15 14 13 11 9 9 11 7 4 6 6 9 12 11 10 7 7 8 8 9 10 9 9 9 8 7 6 6 6 6 7 8 10
34 34 35 37 38 39 39 39 40 40 39 38 37 35 34 34 32 30 30 31 31 32 32 32 32 32 31 32 33 32 31 31 30 28 28 28 27 27 27 27 26 26 26 25 25 24 22 22 22 21 19 17 16 16 15 14 12 11 9 4 3 5 2 7 11 11 11 8 7 8 8 9 9 9 10 10 9 7 6 5 5 5 6 7 9
35 36 38 39 41 41 40 38 38 39 40 39 38 35 32 31 31 28 27 28 29 30 32 33 34 35 35 35 35 34 33 33 32 31 30 30 29 28 28 28 27 27 27 27 26 26 24 24 23 22 21 20 19 18 17 16 15 15 12 5 4 3 3 9 11 9 12 11 7 8 8 8 8 9 10 11 9 7 6 5 4 4 5 6 8
37 39 41 42 42 41 39 38 37 38 39 39 38 35 33 32 32 30 29 29 29 31 35 36 37 38 38 37 36 35 35 35 34 33 32 32 31 30 29 29 28 28 28 27 27 27 26 25 24 22 21 22 21 19 18 18 17 18 18 13 8 3 4 12 9 3 9 11 9 9 8 7 7 8 9 11 10 7 7 5 4 4 4 5 8
40 42 41 42 40 39 39 39 38 38 39 39 38 37 36 34 34 34 34 33 32 33 36 36 36 38 38 37 37 36 35 35 36 35 34 34 33 32 31 30 29 29 28 28 29 28 28 27 26 24 22 22 22 20 19 20 19 17 19 19 16 10 8 14 9 4 5 8 11 11 9 8 7 6 6 8 10 8 7 5 4 4 4 5 8
41 41 40 41 41 40 40 40 39 38 39 40 40 40 39 37 36 36 35 35 35 34 34 34 34 35 36 37 38 37 37 36 36 36 36 35 35 34 33 32 31 31 29 30 30 29 29 28 27 25 23 23 23 22 20 21 21 20 19 19 18 15 13 15 14 11 7 3 8 10 10 11 9 6 4 4 8 10 7 6 4 5 4 5 8
41 40 42 42 42 42 41 40 41 40 39 40 41 42 41 39 37 37 36 36 35 34 32 33 34 34 35 37 38 39 39 39 38 37 37 36 36 35 34 34 34 33 32 31 30 29 29 29 28 26 25 24 24 23 22 22 22 21 19 19 18 16 14 13 15 14 8 5 5 6 10 11 9 9 6 2 4 8 8 5 3 3 5 6 7
41 41 42 40 40 41 41 41 42 42 41 40 41 42 42 40 39 38 38 37 36 33 31 31 33 34 35 37 38 39 40 40 40 39 38 38 37 37 36 36 36 35 35 33 32 31 30 29 29 27 26 25 25 24 24 23 23 22 20 20 20 18 14 11 14 14 9 7 5 7 14 13 9 11 10 7 3 4 7 5 1 1 4 5 6
38 38 38 38 39 40 40 41 43 42 41 41 41 41 42 42 42 40 40 40 37 34 32 32 33 34 36 37 38 39 40 40 40 40 40 39 39 39 38 37 37 37 37 36 35 33 31 30 30 28 27 27 26 25 25 24 23 23 22 21 22 23 20 15 18 20 13 8 6 6 14 14 10 11 11 11 8 3 5 6 4 3 4 5 6
Wind_Direction
151 143 136 134 128 124 125 122 118 115 110 105 100 95 92 89 87 87 90 91 91 91 92 97 101 99 91 89 90 85 81 79 80 81 79 79 82 85 86 86 86 85 84 83 84 82 81 80 81 84 83 80 80 82 83 82 81 81 79 77 73 69 66 68 65 57 56 61 66 67 66 65 62 61 59 57 58 57 56 52 49 50 50 47 45
151 142 137 135 131 126 124 124 122 118 113 108 101 98 96 93 92 94 98 93 91 91 90 93 99 104 100 94 90 87 86 86 86 87 85 87 92 93 90 88 88 88 87 86 85 84 83 81 81 82 79 77 79 81 83 82 83 83 83 84 81 75 72 77 74 58 54 56 62 71 70 67 64 61 58 55 53 53 54 51 47 47 47 45 43
146 142 139 135 131 127 125 124 123 119 114 110 105 101 96 95 98 99 96 93 96 96 94 94 96 104 109 103 93 90 91 89 88 90 90 90 93 93 90 89 89 88 87 86 85 84 82 81 81 81 78 77 80 82 84 85 86 87 88 89 84 78 76 78 78 64 57 56 63 73 74 68 64 61 57 54 51 50 49 47 46 44 44 44 43
144 141 139 136 133 129 127 126 124 120 116 111 106 102 98 99 99 97 97 103 105 99 98 99 98 103 109 106 97 95 93 91 91 92 94 91 89 89 89 88 87 87 87 85 84 83 81 80 81 80 79 79 81 85 87 90 90 90 90 89 83 76 78 79 76 69 61 58 62 70 72 70 65 61 57 51 50 49 46 46 43 40 41 44 44
143 141 141 137 134 132 129 129 127 123 119 113 109 106 107 108 103 102 108 110 106 104 102 101 99 101 107 106 100 99 96 95 95 94 96 96 94 91 90 89 88 88 87 86 84 83 82 81 80 79 81 81 85 90 91 92 91 89 87 88 85 77 78 80 77 73 66 63 64 66 68 71 68 62 56 48 50 50 46 45 41 40 44 46 43
144 142 142 139 135 134 132 133 131 127 122 117 111 110 113 113 110 111 114 108 107 108 104 103 102 102 105 106 103 101 99 99 97 96 96 98 100 96 94 95 95 92 88 88 86 84 82 81 80 80 81 85 90 94 93 91 89 88 85 83 83 78 72 78 84 78 72 70 65 60 59 68 69 61 52 46 52 52 47 46 43 43 44 44 42
145 145 144 142 138 137 135 137 134 129 125 119 113 111 111 112 114 114 111 108 108 107 103 103 102 103 104 105 105 103 101 98 95 94 94 95 96 95 97 99 98 95 91 89 88 87 86 84 82 81 81 85 93 96 94 91 88 87 85 81 80 79 70 73 86 80 72 68 61 56 56 58 57 56 49 46 53 52 49 48 46 44 42 41 40
145 147 145 144 145 144 140 140 137 133 129 122 117 116 117 116 117 115 111 110 109 107 105 104 103 104 104 106 107 104 101 96 95 94 94 94 94 96 98 101 98 92 89 86 86 88 87 87 84 82 81 86 95 98 95 92 90 88 87 84 81 81 75 72 77 77 72 66 62 59 59 52 48 59 55 50 54 50 50 48 48 44 41 43 39
149 148 145 147 150 150 145 143 141 136 132 127 123 125 126 123 120 117 114 111 110 109 107 107 108 106 107 110 108 107 103 98 97 96 96 97 99 100 96 98 96 91 89 83 84 87 85 86 85 84 83 87 96 99 97 95 92 90 89 87 82 81 80 75 73 76 74 66 63 59 60 54 51 64 60 53 53 48 46 41 47 45 39 43 40
152 150 149 151 153 156 149 146 144 139 137 133 128 129 131 128 123 120 118 114 112 114 113 111 112 110 110 112 112 112 108 104 104 101 99 102 104 105 100 98 97 94 91 85 86 88 86 86 85 84 85 88 95 100 100 98 96 94 91 89 85 80 79 77 75 72 67 61 56 51 56 53 46 54 53 51 47 43 41 33 37 40 36 36 38
154 150 153 162 161 157 152 150 147 143 140 135 131 130 133 132 127 122 121 118 116 120 120 117 118 115 112 113 115 114 112 113 111 105 103 104 107 110 108 105 102 99 94 91 92 93 91 89 87 85 85 87 93 98 100 101 99 96 93 90 88 83 78 76 76 68 60 57 55 48 44 40 39 41 40 44 44 38 36 32 29 28 29 25 29
153 151 150 163 160 153 153 153 149 146 142 137 136 131 132 132 129 126 126 125 125 129 126 122 122 118 114 116 114 115 118 119 114 108 105 102 104 112 112 108 107 107 105 101 97 96 95 93 92 88 86 86 88 92 96 100 99 96 93 88 84 87 81 70 71 68 56 55 52 43 36 27 33 34 30 33 40 36 29 29 27 24 21 18 23
146 151 152 158 156 153 154 153 151 150 147 144 140 131 131 134 132 135 135 133 131 130 125 121 120 115 115 118 115 117 119 116 113 112 109 103 101 108 109 107 108 110 111 108 103 101 100 98 95 91 87 86 85 86 89 93 95 92 87 81 79 83 78 63 67 66 56 56 46 37 33 28 31 29 25 22 23 28 28 26 25 24 17 22 27
147 153 158 159 155 154 156 154 154 152 152 148 141 134 134 137 139 147 146 137 133 130 125 121 118 117 119 118 114 113 115 116 117 119 119 112 110 114 110 109 109 108 110 111 111 107 106 101 96 93 88 84 83 83 83 86 89 91 88 82 80 79 70 62 68 64 55 55 42 35 34 32 31 25 22 17 14 21 27 27 23 19 14 20 28
154 155 158 160 156 156 159 157 157 155 155 150 145 143 143 145 149 154 148 136 133 133 130 125 123 124 124 121 119 119 120 123 124 129 130 122 119 121 113 110 112 109 110 113 115 113 110 103 97 93 88 83 81 80 79 79 80 85 89 86 81 75 68 61 61 59 53 50 38 33 32 30 27 22 19 14 13 21 27 26 22 17 13 14 18
156 156 158 160 156 159 163 161 162 158 155 154 152 151 153 156 158 158 149 139 137 137 134 130 129 131 135 133 133 135 135 132 127 131 133 128 123 121 116 114 114 112 113 114 118 117 109 102 98 92 87 84 81 78 74 71 71 74 82 82 78 75 69 58 53 57 50 42 30 21 21 19 18 23 18 12 12 20 24 22 20 18 16 12 10
152 156 160 160 160 162 166 165 164 160 158 158 155 155 160 163 163 164 157 147 142 141 138 134 134 137 147 152 146 143 144 141 134 134 134 134 134 127 122 122 120 123 122 115 115 112 105 100 96 92 88 86 81 76 69 64 67 72 75 71 67 68 63 56 54 50 38 29 18 12 14 14 17 24 18 13 9 14 19 18 20 19 18 13 7
150 158 163 162 164 166 170 169 168 164 160 160 158 161 165 169 169 169 165 158 153 149 146 144 143 138 144 154 154 148 151 150 141 141 141 141 142 133 129 131 131 130 124 114 111 107 103 101 96 93 90 86 82 73 65 64 70 71 69 64 58 54 50 54 54 35 23 17 12 12 13 13 18 20 17 14 9 15 20 20 22 18 18 18 12
151 157 162 163 165 167 172 173 173 169 165 164 162 166 170 174 174 172 169 166 163 160 155 150 144 134 131 144 157 155 155 159 155 152 149 151 149 144 144 139 132 126 119 113 110 107 103 101 96 94 91 88 81 72 67 68 73 69 63 57 47 45 46 46 43 26 15 12 12 13 11 9 13 17 16 14 15 22 23 23 22 17 20 22 14
157 159 161 165 166 168 173 175 177 175 173 170 164 165 170 176 179 180 177 173 170 167 159 151 146 138 130 138 158 161 160 162 163 164 159 161 160 156 152 135 128 124 118 115 112 108 103 98 95 93 93 88 78 72 67 62 64 66 65 58 44 43 47 36 30 29 21 15 13 11 8 6 15 23 20 17 22 25 24 26 24 24 26 22 16
163 167 167 168 166 169 174 177 181 182 180 176 170 166 171 179 183 187 187 187 178 166 159 156 153 143 131 136 152 159 160 161 163 170 169 166 161 150 138 125 124 122 118 118 114 108 102 96 93 91 91 86 75 67 55 42 43 56 60 59 49 42 47 32 21 26 20 15 10 8 7 10 29 36 27 26 28 27 31 33 30 33 31 24 24
168 171 174 174 169 170 175 179 183 187 187 182 178 172 177 186 186 191 193 192 185 169 164 166 164 151 139 138 145 152 154 159 157 158 160 154 145 136 128 122 123 122 121 120 114 108 99 93 91 87 85 80 70 57 47 43 47 63 64 61 57 44 36 28 25 21 12 12 6 9 11 21 43 43 38 39 35 38 44 41 36 38 37 32 32
172 171 174 177 175 173 175 181 185 190 192 187 185 182 185 191 192 198 198 194 190 179 173 173 171 158 144 140 143 152 154 157 153 148 147 145 141 136 131 129 128 128 127 125 118 108 98 95 91 84 80 77 67 49 41 43 47 57 55 51 57 44 26 26 34 21 13 16 7 12 17 31 49 44 45 47 41 47 48 44 42 41 37 35 39
177 173 176 177 178 179 179 182 187 193 194 187 188 188 192 195 199 206 204 197 193 191 187 181 177 166 149 146 154 168 171 166 162 158 149 148 147 142 140 138 137 137 134 133 124 109 102 101 95 87 83 75 64 49 34 35 41 41 31 23 42 50 32 31 33 14 13 17 11 16 18 33 52 46 47 47 41 43 46 48 46 43 41 42 48
178 178 183 182 184 186 187 186 187 196 197 191 193 197 199 199 203 207 205 201 196 195 193 192 189 175 160 159 177 190 195 200 185 172 160 158 155 151 153 150 150 148 147 148 133 119 108 99 91 88 92 69 55 52 35 37 42 33 31 33 49 65 45 38 23 6 9 18 16 16 16 32 54 54 50 44 40 42 50 56 51 51 55 54 58
181 184 186 185 187 187 189 190 189 197 200 199 200 201 200 199 201 200 201 202 198 195 190 192 190 176 172 175 188 191 196 211 204 185 172 167 163 164 167 164 166 163 165 162 137 126 113 100 89 78 81 51 36 38 30 33 30 26 63 51 51 66 53 36 7 5 13 21 19 14 16 32 48 57 58 49 48 54 60 64 60 60 63 62 62
183 187 188 184 185 186 190 189 190 195 199 203 201 194 199 203 202 199 204 199 191 192 189 191 191 179 181 186 189 191 201 215 210 195 183 175 172 173 179 177 176 176 175 158 132 126 114 103 89 60 53 36 13 12 18 20 15 20 50 30 50 67 57 36 5 14 24 24 21 14 19 32 41 57 66 62 61 65 68 68 67 67 68 67 67
183 187 190 189 189 189 191 189 190 194 196 201 197 193 202 207 203 203 213 199 185 191 193 196 199 193 192 193 193 201 214 216 204 197 190 185 182 180 188 190 182 182 179 158 141 135 127 123 124 105 181 149 26 3 349 357 4 2 2 21 68 72 64 70 25 26 29 25 21 15 20 34 47 61 70 73 73 74 73 72 72 73 73 72 71
185 187 189 192 192 193 195 193 194 199 201 201 202 202 202 202 200 204 211 203 197 198 198 203 204 203 202 199 202 210 218 214 199 198 198 188 185 188 199 202 192 191 188 164 142 136 126 185 192 202 246 248 285 2 8 360 354 5 33 42 74 78 88 91 28 28 30 30 24 18 21 32 52 63 68 75 80 80 76 76 77 76 77 75 72
187 188 189 192 192 193 197 198 199 203 206 208 211 211 206 206 206 210 210 203 209 208 203 209 209 209 204 202 209 210 208 205 199 205 203 191 187 195 202 199 196 196 190 167 142 150 163 204 201 228 261 270 269 271 20 50 68 57 32 39 73 100 123 92 12 28 46 47 35 29 24 28 52 62 66 77 84 85 80 79 80 78 79 76 72
188 187 189 192 191 194 198 200 203 205 208 212 215 214 211 213 214 217 213 204 209 212 207 210 212 216 211 205 206 197 193 198 204 211 202 193 195 199 198 196 198 191 179 174 164 186 213 219 227 283 282 311 308 242 57 51 99 48 357 19 72 116 159 177 19 72 89 74 56 46 29 29 51 60 68 83 91 92 87 83 81 81 80 75 71
190 189 190 191 191 196 199 202 205 205 207 211 212 214 215 215 214 217 216 206 205 208 207 210 213 221 220 207 196 187 191 199 208 211 198 199 205 203 198 196 199 188 173 186 193 203 225 233 241 286 280 45 65 112 106 170 175 27 303 19 94 166 172 174 58 107 109 101 95 77 32 38 56 61 74 88 95 99 96 88 83 82 80 75 70
190 191 190 190 192 197 201 203 206 206 206 206 207 212 216 215 214 217 218 209 204 204 205 212 218 221 219 204 191 186 194 203 210 213 204 208 210 202 197 189 191 194 191 204 219 228 240 235 232 243 229 225 248 211 213 198 184 183 191 97 172 180 179 168 107 123 124 129 123 91 36 71 69 67 81 92 96 103 105 98 92 87 82 76 70
191 191 191 192 196 199 201 203 206 208 209 207 205 209 213 215 216 219 221 214 206 202 203 214 219 215 212 206 194 187 190 200 208 210 207 209 204 193 193 190 195 203 201 213 232 236 230 220 223 224 214 243 244 201 203 195 180 186 154 115 158 169 175 145 126 136 138 140 133 143 134 109 88 81 92 100 101 105 109 106 101 93 86 77 69
197 194 196 199 201 202 202 203 205 209 212 211 207 207 210 213 217 219 220 215 208 203 204 211 211 207 211 214 201 191 190 193 199 205 205 204 201 195 196 200 207 211 209 223 239 229 226 227 223 218 209 227 218 176 175 176 170 172 154 137 148 157 157 137 138 143 145 154 142 139 143 126 107 102 107 110 109 108 108 104 100 93 84 75 66
203 198 199 201 202 203 204 204 205 208 211 213 211 210 209 212 218 219 217 213 209 207 209 211 205 204 213 218 210 199 194 192 195 206 209 204 203 203 206 208 210 215 221 232 235 228 234 234 221 216 212 210 192 171 179 175 157 156 155 150 152 158 152 140 146 148 154 160 137 129 140 138 131 125 122 122 119 116 111 104 97 89 79 70 60
206 203 200 200 201 202 203 205 207 208 210 211 212 212 210 211 216 219 218 214 210 209 212 213 205 204 212 219 219 210 202 197 197 206 211 206 202 204 211 212 213 219 226 230 226 224 230 226 214 211 211 208 201 199 203 193 173 164 171 177 176 169 161 155 150 156 168 160 141 135 141 143 140 135 133 133 131 124 113 100 91 80 72 65 56
207 205 202 201 201 202 203 205 207 209 211 211 212 212 211 211 215 218 219 216 214 212 213 214 208 206 212 219 222 216 210 204 200 204 211 208 203 206 211 214 219 223 224 223 217 218 222 222 217 207 205 208 210 217 221 219 201 178 175 191 186 172 165 164 158 158 163 159 158 154 144 141 135 133 139 141 135 122 106 90 79 68 63 59 53
207 207 206 204 202 203 204 205 207 209 211 212 212 210 210 212 214 217 219 218 217 216 214 215 212 210 213 218 221 219 215 211 207 206 210 211 206 207 211 216 221 219 218 220 214 213 215 219 222 210 204 214 220 218 220 225 205 185 188 195 182 173 167 164 168 164 158 157 164 164 155 143 129 133 143 140 129 114 99 84 72 63 59 55 49
207 207 207 207 205 204 204 206 208 209 210 211 210 207 205 209 212 214 216 216 217 218 217 216 214 214 215 218 220 221 220 217 214 211 212 213 211 209 210 217 222 216 217 220 214 213 214 217 222 214 206 212 220 222 220 206 194 187 183 180 171 171 169 166 170 169 166 168 167 166 161 149 135 136 141 137 126 112 97 83 71 64 58 52 47
205 206 206 207 207 205 205 206 208 208 209 209 207 204 202 204 207 209 211 212 215 216 217 216 215 216 216 217 218 220 222 221 219 217 216 215 214 213 212 217 222 220 222 223 218 216 217 220 223 220 216 215 215 218 219 195 187 176 153 157 157 160 162 168 175 175 177 183 177 169 162 159 149 139 140 137 129 114 96 81 70 64 56 48 42
204 204 205 206 207 207 208 208 207 206 209 210 208 206 205 204 205 207 209 210 213 214 215 216 215 215 215 216 217 218 221 221 221 219 218 217 215 215 215 217 220 222 224 224 221 218 218 222 223 221 217 216 215 214 211 195 189 175 153 142 143 157 162 171 178 182 188 187 181 175 167 168 161 151 150 142 130 116 97 82 68 62 54 45 34
205 205 206 206 207 209 211 211 208 207 209 210 211 211 210 208 208 209 209 210 213 216 218 218 215 214 214 215 216 218 220 220 221 220 218 217 216 216 217 218 219 221 222 222 220 218 219 220 221 222 216 211 212 212 213 205 190 170 155 145 152 157 162 178 178 184 193 187 180 179 175 177 171 165 166 151 132 116 99 84 68 62 53 40 26
205 206 207 208 209 211 212 213 211 210 211 212 213 213 213 213 213 214 213 213 216 219 221 221 217 214 213 215 216 218 219 220 220 219 218 217 216 217 217 218 220 221 222 221 220 218 219 219 220 222 217 210 207 208 215 214 199 180 160 140 157 154 183 193 175 178 187 178 175 181 180 183 179 174 177 162 137 116 100 83 64 61 53 36 19
205 207 208 209 211 212 213 213 213 213 213 214 213 213 213 214 214 216 217 217 218 217 217 218 216 213 213 214 215 217 219 220 220 220 219 217 217 217 216 217 219 220 221 221 221 220 220 221 220 220 220 218 213 207 210 214 212 204 193 165 139 159 225 180 164 176 189 179 172 180 185 190 186 180 183 174 148 117 97 79 59 60 48 29 12
207 208 210 211 212 212 213 214 214 214 214 215 213 212 213 212 211 210 211 211 213 214 213 214 214 213 213 213 213 216 218 220 220 220 220 219 219 218 216 216 217 218 220 221 222 221 220 221 222 224 226 226 219 208 204 208 214 216 216 214 205 232 197 164 156 168 191 191 180 172 180 194 196 187 184 183 168 130 99 78 54 55 44 18 5
209 210 211 212 212 213 213 213 214 214 214 214 213 212 212 212 211 211 211 211 211 214 216 216 215 215 215 215 215 217 218 220 221 221 222 221 221 221 219 218 218 220 221 222 223 222 222 223 225 228 228 226 219 209 205 207 209 215 224 227 230 243 199 169 169 155 168 204 198 181 177 183 194 195 186 188 184 158 110 83 51 43 33 5 357
210 210 211 212 213 213 213 213 214 214 213 213 212 212 212 212 213 214 215 215 215 217 218 217 217 217 217 217 218 220 220 222 223 223 223 224 224 223 222 221 221 222 223 223 223 223 224 224 225 227 227 226 220 212 209 209 209 214 221 225 231 237 210 189 190 178 149 176 201 198 189 181 184 186 183 184 187 178 137 90 52 33 15 345 345
210 210 211 212 213 213 214 214 214 215 214 213 212 212 213 212 213 215 217 219 220 220 220 218 218 217 219 220 221 222 223 224 225 225 225 226 226 226 225 224 224 224 223 224 223 223 224 223 223 223 224 225 221 217 215 214 214 217 220 220 222 224 217 209 203 188 165 148 183 206 191 184 188 187 187 172 175 185 166 114 49 23 1 336 330
211 211 212 212 212 213 213 214 216 216 215 214 213 213 213 213 214 215 217 220 220 220 221 220 219 218 220 221 222 222 223 224 225 225 226 227 227 227 226 226 226 225 224 224 224 224 225 226 226 225 225 223 218 218 220 222 223 223 225 223 215 209 206 206 200 191 178 165 171 193 186 181 187 191 196 198 185 190 185 168 58 341 335 325 315
212 212 212 212 212 212 212 214 216 217 216 215 214 214 214 214 216 216 217 219 219 218 218 219 218 217 219 220 221 221 222 223 224 224 225 226 227 227 227 227 227 227 225 225 225 226 227 228 228 227 225 221 217 219 223 228 229 226 227 228 221 212 203 199 198 191 182 172 161 172 183 180 184 194 202 206 204 206 198 198 211 256 302 308 309